Weather in Lancaster

United Kingdom     54˚03′08″N   2˚47′48″W
temp.,
°C
wind,
m/s
gust,
m/s
humid.,
%
clouds,
%
prec.,
mm/h
press.,
hPa
HPBL,
m
28 november, sat
sat2800:00+2˚ese348493 0.0 1017102
03:00+2˚e45900 0.0 1017123
06:00+4˚e478924 0.0 1018208
09:00+4˚e489282 0.0 1019217
12:00+7˚e398544 0.0 1020495
15:00+7˚ene399084 0.0 1020528
18:00+7˚e4109392 0.0 1022399
21:00+7˚e389596 0.0 1023310
29 november, sun
sun2900:00+6˚e239580 0.0 1024101
03:00+7˚e129496 0.0 102454
06:00+7˚ese129398 0.0 102553
09:00+7˚se119366 0.0 102652
12:00+8˚wsw118742 0.0 1026229
15:00+8˚wsw119241 0.0 102669
18:00+7˚nw009358 0.0 102654
21:00+7˚s229483 0.0 102673
30 november, mon
mon3000:00+7˚s239491 0.0 1026114
03:00+8˚sw369895 0.3 1025192
06:00+8˚w369588 0.4 1025262
09:00+8˚w5990100 0.1 1024484
12:00+8˚w71289100 0.7 1023700
15:00+9˚w81288100 0.1 1022723
18:00+9˚w91394100 0.7 1021638
21:00+10˚wnw81396100 0.5 1022553
1 december, tue
tue100:00+9˚nw5897100 0.6 1023273
03:00+7˚ne2294100 0.0 102456
06:00+6˚ene119291 0.0 102543
09:00+7˚s119176 0.0 102538
12:00+8˚s119188 0.2 102587
15:00+9˚sw2398100 0.0 1024130
18:00+8˚wsw239795 0.0 102456
21:00+8˚wsw499675 0.0 1023289
2 december, wed
wed200:00+9˚wsw6109371 0.1 1022495
03:00+9˚wsw51091100 0.3 1020494
06:00+9˚wsw6119393 0.4 1019580
09:00+8˚nw61088100 0.6 1019551
12:00+8˚w577475 0.6 1017999
15:00+7˚w687347 0.1 1016798
18:00+7˚wsw597473 0.3 1015658
21:00+7˚wsw5975100 0.3 1013591